Theta_e
287 287 287 286 286 286 286 286 286 286 285 285 285 284 284 284 285 286 287 287 287 287 287 287 287 287 287 287 287 287 287 287 286 286 285 285 284 283 283 282 282 282 281 281 281 280 280 280 280 280 280 280 279 279 280 280 281 281 281 281 281 282 282 282 282 282 282 282 282 282 282 282 282 282 282 282 282 282 282 281 281 282 282 283 283
287 286 286 286 286 286 286 286 285 285 285 285 284 284 285 285 286 287 287 287 287 287 287 287 287 287 287 287 287 286 286 286 285 285 284 284 283 283 282 282 281 281 281 281 280 280 280 280 279 280 280 279 279 279 279 279 280 280 280 280 280 280 281 281 281 281 281 281 281 281 281 281 282 282 282 281 281 281 281 281 281 281 281 282 282
286 286 286 286 286 285 285 285 285 285 284 284 284 285 285 286 287 287 287 287 287 287 287 287 287 287 287 286 286 286 285 285 284 284 283 283 282 282 281 281 281 280 280 280 280 279 279 279 279 279 279 278 278 278 278 279 279 279 279 279 279 279 279 280 280 280 280 280 280 280 281 281 281 281 281 281 280 280 280 280 280 280 281 281 281
286 286 286 285 285 285 285 285 285 284 284 284 284 285 286 287 287 287 287 287 287 287 287 287 287 287 286 286 285 284 284 283 283 283 283 282 282 281 281 280 280 280 279 279 279 279 278 278 278 278 278 278 277 278 278 278 278 278 278 278 278 278 278 279 279 279 279 280 280 280 280 280 280 280 280 280 280 280 280 280 280 280 280 280 281
286 286 285 285 285 285 285 285 285 284 284 284 284 285 286 287 287 287 287 287 287 287 287 287 286 286 285 284 284 283 283 283 283 282 282 282 281 281 280 280 279 279 278 278 278 278 278 278 278 278 278 277 277 277 277 277 277 277 277 277 278 278 278 278 278 278 279 279 279 279 279 279 279 278 279 279 278 278 279 279 279 279 280 280 280
286 286 285 285 285 285 285 285 285 284 284 284 285 286 287 287 287 287 287 287 287 287 287 286 285 285 284 283 283 283 282 282 282 282 281 281 281 280 280 279 279 278 278 278 277 277 277 277 277 277 277 277 277 277 277 277 276 277 277 277 277 277 277 277 277 278 278 278 278 278 278 277 277 277 277 277 277 277 277 278 278 278 279 279 278
286 285 285 285 285 285 285 285 285 284 284 284 285 286 287 287 287 287 287 287 287 286 286 285 284 284 283 283 283 282 282 281 281 281 281 280 280 279 279 278 278 278 277 277 277 277 277 277 277 277 277 276 276 276 276 276 276 276 276 277 276 276 276 276 276 276 276 276 276 276 276 276 276 276 276 276 276 277 277 277 277 277 277 277 277
286 285 285 285 285 285 285 285 285 284 284 285 286 287 287 287 287 287 287 286 286 286 285 284 283 283 282 282 282 282 281 281 281 280 280 279 279 279 278 278 277 277 277 277 277 277 277 277 277 276 276 276 276 276 275 275 275 275 276 276 276 275 276 275 275 275 275 275 275 275 275 275 275 275 276 276 276 276 276 276 276 276 276 276 277
286 285 285 285 285 285 285 285 285 284 285 285 286 287 287 287 287 287 286 286 286 285 285 284 283 282 282 282 282 282 281 281 280 280 279 279 279 278 277 277 277 277 276 276 276 276 277 277 277 276 276 276 275 275 274 274 275 275 275 275 275 275 275 275 274 274 274 274 274 274 274 274 275 275 275 275 275 275 275 275 276 276 276 276 276
286 285 285 285 285 285 285 285 285 285 285 286 286 286 286 286 287 287 286 286 285 285 284 283 283 282 282 281 281 282 281 281 280 279 279 278 278 278 277 277 276 276 276 276 276 276 276 276 276 276 276 275 275 274 274 274 275 275 275 275 274 274 274 274 274 274 274 273 274 274 274 274 274 274 274 274 274 274 275 275 275 276 276 276 276
286 286 285 285 286 285 285 285 285 285 285 286 286 286 286 286 286 286 286 285 285 284 284 283 283 282 281 281 281 281 281 281 280 279 278 278 278 277 277 276 276 275 275 275 275 276 276 276 276 276 275 275 274 274 274 274 274 274 274 274 274 274 274 274 274 273 273 273 273 273 273 273 274 274 274 274 274 274 275 275 275 276 276 276 276
286 286 286 286 286 286 285 285 285 285 286 286 286 286 286 286 286 286 286 285 284 284 283 283 283 282 282 281 281 281 281 280 280 279 278 278 277 276 276 276 275 275 275 275 275 276 276 276 275 275 274 274 274 273 273 273 273 273 274 274 274 274 274 274 274 273 273 273 273 273 273 273 273 274 274 274 274 275 275 275 275 276 276 276 276
286 286 286 286 286 286 285 285 285 285 286 286 286 286 286 286 286 286 285 285 284 283 283 283 283 282 282 281 281 281 281 280 279 278 278 277 277 276 275 275 274 274 274 274 275 275 275 275 275 274 274 274 273 273 273 273 273 273 273 273 273 273 273 273 273 273 273 273 273 273 274 274 274 274 274 274 275 275 275 275 275 275 276 276 276
286 286 286 286 286 286 285 285 285 285 285 286 285 285 286 286 286 286 285 284 284 283 282 282 283 282 281 281 281 281 281 280 279 278 277 277 276 275 275 274 273 273 273 273 274 274 274 274 274 273 273 273 273 273 273 273 273 273 273 273 273 273 273 273 273 273 274 274 274 274 274 274 274 274 274 274 275 275 275 275 276 276 276 276 276
286 286 286 286 286 286 285 285 285 285 285 285 285 285 285 286 285 285 284 284 283 283 282 282 282 282 281 281 280 280 280 279 278 277 277 276 275 275 274 274 273 273 273 273 273 273 273 273 273 273 273 273 273 273 273 273 273 273 273 273 273 273 273 274 274 274 274 274 274 274 274 274 274 275 275 275 275 275 275 276 276 276 276 276 276
287 286 286 286 286 286 285 285 285 285 285 285 285 285 285 285 285 285 284 283 283 282 282 282 282 281 281 280 280 280 280 279 277 277 276 276 275 274 274 274 273 273 273 273 273 272 272 272 272 272 272 272 272 273 273 273 273 273 273 274 274 274 274 274 274 275 275 275 275 275 275 275 275 276 276 276 276 276 276 276 276 276 276 276 277
287 287 286 286 286 286 286 285 285 285 285 285 285 285 285 284 284 284 283 283 282 282 281 282 281 281 280 280 280 280 279 278 277 276 276 275 274 274 273 273 273 273 272 272 272 272 272 272 272 272 272 272 272 273 273 274 274 274 274 274 275 275 275 275 275 275 275 276 276 276 276 276 276 277 277 277 277 277 277 277 277 277 277 277 277
287 287 287 287 286 286 286 285 285 285 285 285 285 285 284 284 283 283 283 282 281 281 281 281 281 280 280 280 279 279 278 277 276 275 275 274 274 273 273 272 272 271 271 271 271 271 272 272 272 272 272 272 272 273 274 274 275 275 275 275 275 275 275 275 276 276 276 276 276 276 277 276 276 276 276 276 277 277 277 277 277 277 277 277 277
288 288 288 287 287 286 286 286 286 285 285 285 285 285 284 284 283 282 282 281 281 281 280 280 280 279 279 279 278 278 277 277 275 275 274 274 273 273 272 271 271 271 271 271 271 272 272 272 272 272 273 273 273 274 275 275 275 275 275 276 276 276 276 276 276 276 276 276 276 275 275 275 275 275 276 276 276 276 276 276 277 277 277 277 277
290 289 289 288 288 287 286 286 286 286 286 286 286 285 284 283 282 282 281 281 280 280 279 279 279 279 279 278 278 277 277 276 275 274 274 274 273 272 271 271 271 271 271 271 271 271 272 272 272 273 273 274 274 275 275 275 275 276 276 276 276 276 276 276 276 276 275 275 274 274 274 274 274 275 275 275 275 275 275 275 275 276 276 276 276
291 290 290 289 289 288 287 287 287 287 286 286 285 284 284 283 282 282 281 280 279 279 279 278 278 278 277 277 277 276 276 275 274 274 274 273 273 272 271 270 271 271 271 271 271 272 272 273 273 273 274 274 274 274 275 276 276 276 276 275 275 275 275 275 275 274 274 273 273 273 273 273 273 273 273 273 274 274 274 274 275 275 275 276 276
291 291 290 290 289 289 289 288 288 287 287 286 285 284 283 282 282 281 280 279 279 278 278 277 277 277 276 276 276 276 275 274 274 274 273 273 273 272 271 271 271 271 271 272 272 273 273 273 273 273 273 274 274 275 275 276 276 275 274 274 274 274 274 273 273 272 271 271 271 271 271 271 272 272 272 272 272 273 273 274 274 274 274 275 275
291 290 290 289 289 289 289 288 288 287 287 286 285 283 283 282 281 280 279 278 277 277 276 276 276 275 275 275 275 275 275 274 273 273 273 272 272 272 271 271 272 272 272 273 273 273 273 273 273 273 274 274 275 275 275 274 274 273 272 272 272 272 272 271 270 270 270 270 270 270 270 270 270 271 271 271 271 272 272 273 273 273 273 274 274
289 289 289 289 288 288 288 288 287 287 286 285 284 283 282 281 280 279 278 277 276 276 275 275 275 274 274 273 273 273 273 273 272 272 272 272 272 272 271 271 272 273 273 273 273 273 273 273 273 274 274 274 274 273 273 272 271 271 271 271 271 270 269 269 268 268 268 268 268 269 269 269 269 270 270 270 270 271 271 271 272 272 272 272 273
289 289 288 288 288 288 287 287 287 286 285 284 283 282 281 280 279 278 277 277 276 275 274 274 273 273 272 272 271 271 271 271 272 272 272 272 272 271 271 272 273 273 273 273 273 273 273 273 274 274 273 273 272 271 270 269 269 269 269 269 269 268 267 267 267 267 267 267 268 268 268 268 268 268 269 269 269 270 270 271 271 271 272 272 272
289 288 288 288 287 287 286 286 285 284 284 283 282 281 280 280 279 277 277 276 275 274 273 273 272 272 272 271 271 270 270 270 270 271 271 271 271 271 271 272 272 272 273 273 273 273 273 273 273 272 271 271 270 269 268 268 268 268 268 268 267 267 267 266 266 266 267 267 267 267 267 267 267 267 268 268 268 269 269 270 270 271 271 272 272
288 288 288 287 286 286 285 284 284 283 282 281 280 279 279 279 278 277 276 275 275 274 273 273 272 272 271 271 270 270 270 270 270 270 270 270 270 271 271 272 272 272 272 272 273 273 273 272 271 271 270 270 269 269 268 267 267 267 267 266 266 266 266 266 266 266 266 266 266 266 267 267 267 267 267 267 267 268 268 269 270 270 271 271 272
287 287 287 286 285 285 284 283 282 282 281 280 279 279 278 278 277 277 277 276 276 274 274 273 273 272 272 271 270 270 269 269 270 270 270 270 271 271 272 272 272 272 272 272 273 272 272 271 270 270 269 268 268 268 267 267 266 266 266 266 266 266 266 266 266 266 266 266 266 266 266 266 267 267 267 267 268 268 268 269 269 270 271 271 272
285 285 284 283 283 283 282 281 281 280 280 279 278 278 278 278 277 277 276 276 276 275 274 274 273 273 272 271 271 270 269 269 270 270 270 270 271 272 272 272 272 272 273 273 272 271 271 270 269 268 267 267 267 267 266 266 266 266 266 266 266 266 266 265 265 266 266 266 266 266 266 266 267 267 267 268 268 268 269 269 269 270 270 271 271
283 282 282 281 281 281 280 279 278 277 277 276 275 275 275 276 276 275 275 275 275 275 274 273 273 272 272 271 271 270 270 270 270 270 271 271 272 272 273 272 272 273 273 273 272 271 270 269 268 267 267 266 266 266 266 266 266 266 266 265 265 265 265 265 265 266 266 266 266 266 266 267 267 267 268 268 268 268 268 269 269 269 270 270 271
281 281 281 280 280 279 278 276 276 274 273 273 273 272 272 273 274 274 274 274 274 273 273 272 272 271 271 271 270 270 270 270 271 271 272 272 272 272 272 272 272 273 273 272 271 270 269 267 267 267 266 266 266 266 266 266 265 265 265 265 265 265 265 265 265 265 265 265 266 266 267 267 267 268 268 268 268 268 268 268 269 269 270 270 270
280 280 280 279 278 277 276 274 274 273 272 271 271 270 270 271 272 273 273 273 273 272 272 271 271 271 271 271 271 271 270 271 271 271 272 271 271 271 271 272 272 272 272 271 270 269 268 267 266 266 266 266 266 265 265 265 265 265 265 265 265 265 265 265 265 265 265 266 266 267 267 267 268 268 268 268 268 268 268 268 268 269 269 269 270
279 279 278 277 276 275 274 273 272 272 271 270 270 270 270 270 271 271 272 272 272 271 271 270 270 270 270 271 271 271 271 271 271 271 271 271 271 271 271 272 272 271 271 270 269 268 267 266 266 266 266 265 265 265 265 265 264 264 264 264 264 265 265 265 265 265 265 266 266 267 267 267 267 268 268 268 268 268 268 268 268 268 269 269 269
277 277 276 275 275 274 273 272 271 271 270 270 270 270 270 270 270 271 271 270 270 270 269 269 269 269 269 270 270 270 270 270 270 270 270 270 270 271 271 271 271 270 269 269 268 267 266 266 266 265 265 265 265 265 264 264 264 264 264 264 264 264 264 264 264 265 265 266 266 267 267 267 267 267 268 268 268 268 268 268 268 268 268 269 269
275 274 274 274 273 273 272 271 271 270 270 269 269 269 269 269 269 269 269 269 269 269 269 269 269 268 268 268 269 269 269 268 268 269 269 269 270 270 271 270 269 269 268 267 267 266 266 266 265 265 265 265 264 264 264 264 264 264 264 264 264 264 264 264 264 264 265 266 266 266 267 267 267 267 268 268 268 268 268 268 268 268 268 268 269
273 272 272 272 271 271 271 270 269 269 269 268 268 268 268 267 267 267 267 267 267 267 267 267 267 267 267 267 267 267 267 267 267 268 269 269 270 270 270 269 269 267 266 266 266 266 265 265 265 265 264 264 264 264 263 263 263 263 263 263 263 263 263 264 264 264 265 266 266 266 266 266 267 267 267 268 268 268 268 268 268 268 268 268 269
270 269 269 270 270 270 269 268 268 268 268 267 267 267 266 266 266 266 266 265 265 266 266 266 266 266 266 266 267 266 266 266 267 267 268 268 269 269 268 268 268 267 266 265 265 265 265 265 265 265 264 264 264 264 263 263 263 263 263 263 263 263 263 263 264 264 265 265 265 266 266 266 266 267 267 267 268 268 268 268 268 268 268 268 269
268 267 268 268 268 268 268 267 267 267 267 266 266 266 266 265 265 265 264 264 264 264 264 264 265 265 265 266 266 266 266 265 266 266 266 267 268 267 267 267 266 266 265 265 264 264 265 265 265 265 264 264 264 264 263 263 263 263 263 262 262 262 263 263 264 264 264 265 265 266 266 266 266 266 267 267 268 268 268 268 268 268 268 268 268
267 267 267 267 267 267 267 267 266 266 266 266 265 265 265 264 264 263 263 263 263 263 263 263 263 264 265 265 265 264 264 264 264 265 265 266 267 266 266 266 265 265 265 264 264 264 264 264 264 264 264 264 264 264 263 263 263 263 262 262 262 262 262 263 263 263 264 264 265 265 265 265 266 266 266 267 267 268 268 268 268 268 268 268 268
267 267 267 267 266 266 266 266 265 265 265 264 264 264 263 263 263 262 262 262 262 262 262 262 262 263 265 265 265 264 264 263 264 264 265 265 265 265 264 265 265 264 264 264 264 264 264 264 264 264 264 264 264 264 263 263 263 262 262 262 262 262 262 262 262 263 263 264 264 265 265 265 265 265 266 266 267 267 267 267 267 267 267 268 268
266 266 266 266 265 265 264 264 264 264 264 263 263 262 262 262 262 262 261 261 261 261 261 261 261 262 263 264 263 263 263 262 263 264 264 265 264 264 264 264 264 264 264 264 263 264 264 264 264 264 264 264 264 263 263 263 263 262 262 261 261 262 262 262 262 262 262 263 263 264 264 264 264 265 265 266 267 267 266 266 267 267 267 267 268
265 266 265 265 264 264 263 263 263 263 262 262 262 261 261 261 261 261 261 260 260 260 260 260 260 261 262 262 262 263 263 263 262 263 263 264 264 263 263 263 264 264 263 263 263 263 263 263 263 263 263 263 263 263 263 263 262 262 262 261 261 261 262 262 262 262 262 262 262 263 264 264 264 264 265 266 267 266 266 266 266 266 267 267 267
265 264 264 264 263 263 262 262 262 262 261 261 261 261 261 260 260 260 260 260 260 260 260 260 260 260 261 261 262 262 263 263 263 263 263 263 263 262 262 263 264 264 263 263 263 263 263 263 263 263 263 263 263 263 263 263 262 262 262 261 261 261 262 262 262 262 262 261 261 262 263 263 263 264 264 265 266 266 265 265 266 266 266 267 267
264 263 263 262 262 261 261 261 261 261 261 260 260 260 260 260 259 259 259 259 259 259 259 259 259 259 260 260 261 261 261 262 262 262 262 262 262 262 262 263 263 263 263 263 263 263 263 263 263 263 263 263 263 263 263 263 262 262 262 261 261 261 262 262 262 262 261 260 261 261 262 262 263 263 264 265 266 265 265 265 265 265 266 266 267
263 262 262 262 261 261 261 260 260 260 260 259 259 259 259 259 259 259 259 259 259 259 259 259 259 259 259 259 259 260 260 260 261 261 261 262 262 262 262 263 263 263 263 263 263 263 263 263 263 263 263 263 263 263 263 262 262 262 262 261 261 261 262 262 262 261 261 260 260 261 261 262 263 263 264 265 265 265 265 265 265 265 265 266 266
262 261 261 261 260 260 260 259 259 259 259 259 259 259 259 259 259 258 258 258 258 258 258 258 258 258 259 259 259 259 259 259 259 260 261 261 262 262 262 262 262 262 263 262 262 262 262 262 262 262 262 262 262 262 262 262 262 262 262 261 261 261 262 262 261 261 261 260 260 260 261 263 263 263 264 265 265 265 264 264 264 264 265 265 266
261 261 260 260 260 260 260 259 259 259 259 259 258 258 258 258 258 258 258 258 257 257 257 258 258 258 258 258 258 259 259 259 259 260 261 261 262 262 262 262 262 262 262 262 262 262 262 262 262 262 262 262 262 262 262 262 262 262 262 262 261 262 262 261 261 261 260 260 260 261 262 263 263 263 264 265 265 265 264 264 264 264 265 265 265
261 261 260 260 260 260 259 259 259 259 258 258 258 258 258 258 257 257 257 257 257 257 257 257 257 257 258 258 258 258 258 258 259 260 261 261 261 262 262 262 262 262 262 262 262 262 262 262 262 262 262 262 262 262 262 262 262 262 262 261 261 261 261 261 261 261 261 260 261 261 262 263 263 263 264 265 265 264 264 264 264 264 264 265 265
260 260 260 260 260 259 259 258 258 258 258 258 258 258 257 257 257 257 257 257 257 257 257 257 257 257 257 257 258 258 258 258 259 260 261 261 261 262 262 262 262 261 261 261 262 262 262 262 261 261 261 261 261 261 261 261 261 261 261 261 261 261 261 261 261 261 261 261 260 261 261 262 262 263 264 265 265 264 264 264 264 264 264 264 264
260 260 260 260 259 259 259 258 258 258 258 258 257 257 257 257 257 257 257 257 257 257 257 257 257 258 258 258 258 258 258 259 260 260 260 261 261 261 261 261 261 261 261 261 261 261 261 261 261 261 261 261 261 261 261 261 260 261 260 260 260 260 261 261 261 261 261 261 260 260 260 261 262 264 264 265 265 264 264 264 264 264 264 264 264
260 260 259 259 259 259 258 258 258 258 258 258 258 258 258 258 257 257 257 257 257 257 257 257 257 257 258 258 259 259 259 259 260 260 260 260 261 261 261 261 261 261 261 261 261 261 261 261 261 261 261 261 261 261 260 260 260 260 260 260 260 260 261 261 261 261 261 260 260 260 260 261 263 264 264 265 265 264 264 264 264 264 264 264 264
Wind_Speed
26 26 26 25 25 25 24 23 22 22 21 20 20 19 18 17 15 14 13 11 10 10 10 9 9 9 8 9 9 10 10 11 11 12 12 12 13 14 15 15 15 15 15 15 15 15 15 14 14 13 12 13 14 13 13 11 10 11 11 11 12 12 13 14 14 19 25 24 24 25 23 24 27 25 25 31 36 36 37 38 36 35 33 32 33
26 26 26 25 25 24 24 23 22 22 21 21 20 19 18 17 15 14 12 11 10 9 9 8 7 7 7 8 8 8 9 9 10 10 11 11 12 13 14 15 15 15 15 15 14 14 14 14 14 12 11 13 14 13 13 12 11 11 11 11 13 13 13 15 15 17 23 26 26 26 23 21 23 23 22 28 34 35 35 37 36 33 32 32 34
26 26 26 25 24 24 24 23 23 22 21 21 20 19 17 16 15 13 12 11 10 9 8 7 7 6 6 6 6 6 6 7 9 9 10 11 12 12 13 14 14 14 15 14 14 14 14 14 13 11 12 14 14 13 12 12 11 11 13 13 13 15 14 14 16 17 21 26 27 25 23 20 21 23 22 24 30 31 31 33 35 35 35 33 33
26 26 26 24 23 24 24 24 23 22 21 20 19 18 16 16 15 14 13 12 11 9 8 6 5 4 4 3 3 4 5 6 8 9 11 12 12 13 13 14 14 14 14 14 14 14 13 13 12 12 13 13 14 14 11 11 12 13 15 14 13 15 15 14 15 17 19 24 27 26 24 22 22 23 23 23 24 26 26 29 33 36 36 33 30
26 26 26 24 23 24 25 24 24 23 21 20 19 18 17 16 15 14 13 12 10 9 7 5 4 3 1 0 1 3 4 6 8 10 12 13 14 14 14 15 15 14 14 14 14 14 13 13 13 12 12 12 13 13 12 13 15 15 15 15 14 15 16 15 15 17 18 22 26 28 26 24 23 23 22 21 23 24 24 26 29 32 32 31 29
27 26 26 25 24 25 26 25 24 23 20 20 20 19 18 17 16 15 13 11 10 8 7 5 4 3 3 2 2 3 5 7 9 10 12 13 14 15 15 15 15 14 15 14 14 14 14 14 14 12 11 12 12 13 13 14 15 15 15 15 15 15 16 16 16 16 18 20 23 26 26 24 23 23 21 21 22 23 24 24 25 25 26 29 33
27 26 26 26 26 27 26 25 25 23 21 21 22 21 20 18 17 15 13 11 10 9 7 6 6 5 4 3 3 4 6 7 9 11 12 13 14 15 15 15 15 15 15 15 14 14 15 14 14 13 12 12 13 12 14 15 15 15 14 14 14 15 15 16 15 15 17 19 21 22 24 23 22 22 22 22 22 21 21 22 24 23 24 27 30
28 28 28 28 28 28 27 26 25 23 23 24 24 23 22 20 17 15 13 11 10 8 8 7 7 6 5 5 4 5 6 8 10 11 12 13 14 15 15 15 15 15 15 16 15 15 15 15 14 14 13 13 13 14 16 17 17 15 14 14 14 15 15 15 15 15 16 18 20 20 22 23 22 21 21 21 20 20 19 21 24 24 24 25 26
29 29 29 29 29 28 27 26 24 24 25 26 25 24 23 21 18 16 13 12 10 9 8 8 8 7 6 6 6 6 7 9 10 11 12 13 14 15 15 15 16 16 16 16 16 15 15 14 14 14 15 15 17 19 20 18 16 16 15 14 14 14 14 14 14 15 16 18 20 20 21 22 21 21 21 20 20 22 22 22 24 24 24 25 25
30 30 30 30 29 27 26 27 27 27 27 27 26 25 24 22 19 17 15 14 12 11 10 9 9 8 8 8 8 8 9 10 11 12 13 14 15 15 16 16 16 16 16 17 17 16 14 14 14 15 16 19 20 21 20 18 16 17 16 15 15 15 15 16 15 14 16 18 20 19 20 22 22 21 22 22 22 24 23 22 22 23 23 24 24
31 32 31 30 28 26 28 29 29 29 29 28 27 26 25 23 20 19 18 17 15 13 12 11 10 10 9 9 10 10 10 11 13 14 14 14 15 16 16 17 16 15 16 16 16 15 14 14 15 15 17 19 19 18 18 18 17 17 17 16 16 16 17 18 17 15 16 19 20 20 19 22 23 22 22 24 24 24 23 21 22 23 22 21 21
32 32 31 29 28 28 30 31 31 30 29 29 28 27 25 23 21 21 20 19 17 15 14 14 12 12 11 11 11 12 11 12 14 15 15 14 15 15 17 17 16 16 16 15 15 15 15 15 16 17 18 19 19 19 18 18 17 17 17 17 17 17 17 18 18 18 17 19 21 21 21 23 26 24 23 24 25 25 24 23 22 22 23 22 23
32 31 30 29 29 30 31 32 32 31 31 30 29 27 26 24 23 23 22 20 19 18 17 16 14 14 13 13 13 13 13 13 15 15 15 15 14 15 16 17 17 18 17 17 17 16 16 16 16 17 18 17 17 17 17 16 15 15 16 16 16 16 16 18 19 20 21 22 24 24 24 25 27 27 25 25 27 27 26 26 25 24 24 24 26
32 32 31 30 30 31 32 32 32 32 32 31 30 29 28 27 25 25 23 22 22 21 19 18 16 15 15 15 15 14 14 14 16 16 15 15 15 15 16 17 18 20 20 20 19 18 18 18 18 19 18 16 15 15 14 15 15 15 16 16 16 17 18 20 21 23 24 26 28 29 29 27 29 31 30 28 30 30 28 29 28 27 28 30 33
31 32 31 30 31 32 33 33 33 32 32 32 31 30 30 29 28 26 25 25 25 23 21 20 19 17 16 16 16 16 15 15 16 16 15 15 15 15 17 18 19 20 21 20 20 20 20 20 19 19 18 16 15 15 15 15 17 18 20 21 23 25 26 26 25 24 25 26 29 31 31 30 31 34 35 33 33 34 34 36 36 35 37 38 37
30 31 30 31 32 33 34 34 34 34 33 33 33 33 32 31 29 28 28 27 26 25 23 22 21 19 18 17 17 18 17 15 16 16 15 15 15 16 18 18 19 20 21 20 20 20 18 18 17 17 17 17 15 15 15 16 18 21 23 25 28 30 30 29 27 25 26 28 29 31 33 34 36 38 39 38 37 38 39 40 38 36 35 32 29
30 30 30 32 33 34 35 36 35 35 34 34 35 35 34 32 31 30 30 28 27 26 25 23 22 20 19 18 18 19 18 15 15 15 15 15 16 17 18 18 19 20 20 19 19 17 15 15 16 17 17 16 16 16 16 17 20 23 25 27 28 29 30 30 29 28 30 31 32 33 35 37 38 40 39 38 37 38 37 35 31 28 27 22 19
29 30 32 33 34 35 36 36 36 36 35 36 36 35 34 33 32 32 31 29 28 27 26 25 23 21 20 19 19 20 19 16 14 15 15 14 15 17 18 17 17 19 18 17 16 15 14 14 16 17 17 17 17 18 18 19 22 24 25 26 28 30 32 32 30 29 29 28 28 30 32 33 35 37 36 36 36 35 34 33 31 28 26 22 21
30 31 33 34 34 35 36 36 36 36 36 37 36 35 34 33 33 32 30 29 28 27 26 25 24 22 22 20 19 20 20 17 14 14 14 14 15 16 17 16 15 15 14 14 14 14 13 14 15 17 18 19 19 19 19 19 21 24 26 28 30 30 29 28 27 27 27 27 28 30 32 33 33 33 33 32 31 30 30 32 32 29 27 27 26
30 31 32 32 33 35 35 36 36 36 36 36 35 34 34 33 32 31 30 29 28 27 26 25 24 23 22 21 20 20 20 17 14 14 14 14 14 15 15 14 14 13 12 12 13 14 14 15 15 16 17 18 18 19 20 21 23 27 28 26 24 24 26 29 30 31 32 32 32 31 31 31 30 29 30 29 28 28 29 30 31 30 29 29 27
27 28 29 29 31 32 33 34 35 35 35 34 33 33 32 32 32 31 30 29 28 27 26 25 24 23 22 22 21 19 19 18 15 13 13 14 13 13 14 14 14 13 13 13 14 15 15 15 15 14 15 17 19 20 22 23 24 27 26 23 24 28 32 34 34 32 30 30 29 28 28 27 27 28 28 29 28 29 29 28 28 30 30 30 28
24 25 26 26 28 29 30 31 31 32 32 31 31 31 31 31 31 30 29 28 27 27 26 24 24 23 22 22 21 19 18 18 16 14 13 13 12 13 14 15 14 14 15 16 16 16 16 16 16 16 17 19 21 22 23 24 25 26 27 27 29 32 31 29 28 26 25 24 24 24 25 25 26 26 26 26 26 25 26 26 27 27 29 29 29
23 24 25 25 27 27 28 29 29 29 30 31 31 31 31 30 30 29 29 28 27 26 25 24 23 22 22 22 21 20 18 17 15 14 12 12 12 12 13 14 14 15 17 18 17 17 17 17 17 18 19 21 23 24 25 25 26 26 26 27 27 27 25 23 21 21 20 20 20 21 22 22 23 23 23 23 23 23 24 25 26 27 28 29 30
24 25 26 26 27 27 27 28 29 29 30 30 30 31 30 30 30 29 29 28 27 26 24 23 22 21 20 19 19 19 18 16 14 13 11 11 11 10 11 13 14 15 16 17 17 17 17 17 18 19 21 22 23 24 25 25 24 23 23 23 22 21 19 17 16 16 17 18 18 20 20 21 21 22 22 23 24 25 26 27 27 28 29 31 32
27 28 28 28 29 29 29 29 29 30 30 30 30 30 31 30 30 30 29 28 27 26 23 21 20 19 18 17 17 17 17 15 14 12 11 10 9 9 10 13 13 14 15 17 17 17 17 18 19 20 21 22 23 24 26 24 21 19 19 18 17 16 15 14 14 15 16 17 18 19 20 21 22 23 23 24 25 26 27 27 28 28 30 31 32
29 29 29 30 30 30 30 30 30 30 30 30 30 30 31 31 31 30 30 29 28 27 24 21 20 19 19 18 16 15 15 14 13 12 10 9 7 7 10 11 12 12 14 16 17 16 17 17 17 19 20 21 21 22 22 20 18 16 15 14 14 14 14 14 14 14 15 16 18 19 21 22 23 23 24 24 24 24 25 25 26 26 27 28 28
30 30 31 30 30 30 30 30 31 31 30 30 30 31 31 31 31 31 31 30 29 27 25 23 21 20 19 18 16 15 14 13 12 11 10 9 8 7 8 9 10 11 13 14 14 14 16 18 19 21 22 21 20 19 18 16 15 15 14 14 15 15 14 14 15 15 15 16 18 19 21 22 22 23 23 23 24 24 24 24 24 25 25 26 26
31 31 31 30 30 30 31 31 31 31 32 32 33 33 33 33 34 34 34 32 30 28 26 24 24 22 20 17 15 14 14 14 14 13 11 9 9 8 8 9 9 10 12 13 12 13 15 19 21 21 20 19 18 17 15 14 14 15 15 15 15 14 14 14 15 15 15 16 18 19 21 21 22 23 24 24 25 25 24 24 24 25 25 25 24
30 29 29 29 29 30 30 31 32 32 33 34 34 34 34 34 34 34 33 32 30 27 25 24 23 22 20 18 17 16 16 16 16 13 11 10 11 10 10 10 11 12 13 12 12 13 15 18 19 18 16 15 15 15 14 14 15 15 15 14 14 14 14 14 15 15 16 16 18 19 20 21 22 23 23 24 25 25 25 25 25 25 24 24 23
26 27 27 28 29 29 29 30 32 32 31 32 33 33 32 32 33 32 31 29 27 26 24 23 22 21 20 20 20 19 18 17 14 12 12 13 13 13 13 13 13 14 13 12 13 14 15 16 16 14 13 13 13 13 13 14 15 16 16 15 14 14 14 14 14 15 16 16 18 19 20 21 22 22 22 23 24 25 25 25 24 24 24 23 23
26 27 28 29 30 29 29 30 30 30 29 28 30 30 29 29 29 29 28 27 26 24 23 22 21 20 20 20 19 18 17 16 14 14 14 14 14 14 14 14 14 13 13 14 15 15 15 14 14 13 13 13 13 12 12 13 14 16 17 17 16 15 15 15 15 15 16 18 19 20 20 20 21 22 23 23 24 25 26 25 24 23 23 23 23
27 28 28 28 28 27 27 28 28 28 27 26 25 26 26 25 24 25 25 25 24 23 22 21 20 19 18 18 18 17 15 15 15 16 15 14 14 14 13 13 13 13 14 15 15 15 14 14 14 13 12 12 12 11 11 12 13 15 16 18 18 17 16 16 16 17 18 18 19 19 20 20 21 22 23 23 23 24 25 24 23 23 23 23 23
26 26 24 24 24 25 26 26 26 27 27 26 24 24 24 23 21 19 19 20 21 21 21 20 19 18 18 18 18 18 16 15 15 15 15 14 14 13 13 13 14 15 16 16 15 15 14 14 14 14 13 12 12 12 12 13 14 14 15 16 18 19 18 18 18 17 17 18 18 19 20 21 22 22 23 23 23 23 23 24 24 24 23 23 23
24 24 22 21 22 24 24 25 25 26 26 26 25 24 23 23 20 17 15 15 16 18 20 21 20 20 19 18 18 17 16 16 15 15 15 15 14 14 14 14 15 16 17 17 16 15 15 14 14 14 13 12 12 12 12 13 14 14 15 15 17 18 19 19 17 17 17 18 18 19 20 21 22 22 23 23 23 23 23 24 23 23 23 22 23
20 21 20 20 20 21 22 22 23 23 23 23 23 22 22 21 19 18 17 16 15 16 17 18 19 19 19 19 19 18 19 18 17 16 15 15 15 14 15 16 15 15 15 16 16 16 16 16 15 14 12 12 12 12 13 14 14 14 15 15 16 17 18 18 17 17 17 18 19 20 21 21 22 22 23 23 23 23 23 23 23 23 23 23 24
16 17 17 17 17 18 18 18 19 19 20 20 20 19 18 17 17 16 16 17 17 17 17 17 17 17 18 19 20 20 19 18 16 15 15 15 14 15 17 17 16 15 14 15 15 16 16 16 15 14 13 12 12 12 13 13 14 14 15 15 16 17 18 18 17 17 18 19 19 20 21 22 22 23 23 23 23 22 23 24 24 24 24 24 24
12 13 13 14 15 15 15 15 15 15 15 16 15 15 15 15 14 14 14 15 16 18 19 19 19 18 17 18 19 19 18 17 15 14 14 14 14 17 19 19 18 17 16 16 16 17 17 16 15 14 13 13 13 13 13 13 14 15 15 15 16 17 18 18 17 18 19 20 20 20 21 21 22 22 22 22 23 23 24 24 24 24 25 26 25
10 10 10 10 11 11 11 11 11 11 11 12 12 13 13 13 14 14 15 15 16 17 19 20 20 19 18 17 16 16 15 15 15 16 16 16 17 20 21 21 21 20 19 18 18 18 18 17 16 15 14 13 13 13 13 14 15 15 15 16 17 17 17 17 17 18 18 19 19 19 20 21 22 22 22 23 23 24 25 25 25 25 25 25 24
8 8 8 7 7 8 8 8 9 9 10 11 11 11 12 13 12 13 14 15 15 17 18 18 19 20 19 18 16 15 14 14 16 17 17 18 19 20 21 22 22 21 20 20 19 19 18 17 16 15 15 14 13 13 14 15 15 15 16 17 18 18 17 17 17 18 18 19 19 20 20 21 21 22 23 23 23 23 25 26 26 25 24 24 24
5 6 6 5 5 6 7 7 8 8 9 10 11 11 12 12 12 13 14 14 15 17 17 18 20 20 20 19 18 16 16 15 16 16 17 17 17 18 19 21 22 21 20 20 20 19 18 17 17 16 15 15 14 14 14 15 16 17 17 18 18 19 19 18 18 19 19 19 20 20 20 20 21 23 23 23 22 23 25 26 26 25 25 24 25
4 4 4 4 4 5 5 6 7 7 8 9 9 9 10 12 13 14 14 14 15 16 16 18 20 20 20 20 18 16 15 16 16 15 16 16 16 16 18 20 20 20 20 20 20 19 19 18 17 17 16 16 15 15 16 16 17 18 19 19 19 20 21 20 20 19 20 20 20 20 19 20 21 23 24 23 22 24 26 26 26 25 25 24 24
3 4 3 4 4 4 4 4 4 5 6 7 7 7 8 9 11 11 11 12 13 14 15 17 19 19 20 19 16 14 16 17 17 16 16 16 15 16 17 18 19 19 20 20 20 19 19 18 18 18 17 17 17 17 17 18 18 19 20 21 21 22 22 22 22 21 21 21 20 20 20 20 21 24 24 22 22 25 27 27 26 25 24 23 23
3 3 4 4 4 4 4 4 4 4 4 5 5 6 6 8 9 9 10 11 13 14 15 17 18 19 19 19 17 15 16 18 18 18 18 19 19 19 20 20 20 19 19 20 20 20 20 19 19 19 19 19 19 19 19 19 20 20 21 22 23 23 23 23 23 22 22 21 21 21 21 21 22 25 25 22 22 26 28 28 27 25 24 23 24
2 3 4 4 4 5 5 5 5 5 5 6 7 7 8 8 9 10 11 12 13 14 16 17 17 17 18 18 17 16 17 19 20 21 21 23 24 25 24 23 21 20 20 20 20 20 20 20 20 20 20 20 20 21 21 21 22 22 22 23 23 24 24 24 23 23 23 22 22 23 22 21 23 25 24 22 23 26 28 27 26 24 24 24 24
1 1 2 2 3 3 4 4 5 5 5 6 7 7 7 8 9 10 11 12 13 14 15 16 16 17 16 16 15 15 16 17 19 21 22 24 25 25 24 22 21 20 20 20 20 20 20 20 21 21 21 21 21 22 23 23 24 24 24 23 24 24 24 24 23 22 22 23 23 24 23 22 23 25 24 22 23 26 28 27 26 25 24 25 24
1 1 1 2 2 2 3 3 4 5 5 6 7 7 8 9 10 11 12 13 13 14 15 16 16 17 16 16 16 15 15 15 17 19 20 21 22 22 22 21 20 20 20 20 20 20 20 20 21 22 22 22 22 23 24 24 24 25 25 24 24 24 24 22 22 22 22 22 23 24 23 22 23 24 23 22 24 27 28 27 26 25 25 25 25
2 2 2 2 3 3 4 5 6 7 7 8 9 9 10 10 11 11 12 14 15 16 16 17 17 18 18 17 18 17 16 16 17 18 18 18 18 19 19 19 19 19 20 20 20 20 20 21 22 23 23 23 23 23 24 24 24 24 24 24 24 23 22 22 21 22 22 23 23 23 22 21 23 24 23 22 25 28 28 26 26 25 25 25 25
2 2 2 2 3 4 6 6 6 7 8 8 9 9 10 10 11 11 12 13 14 15 16 17 18 18 18 18 19 18 17 17 18 18 18 17 17 17 17 18 18 19 19 20 21 21 21 22 23 23 24 24 23 23 23 23 23 23 23 24 23 22 21 21 21 22 22 23 23 21 19 19 22 24 24 24 26 27 27 26 26 25 25 25 26
2 2 2 3 4 5 5 5 6 7 7 7 8 9 9 10 11 12 13 13 14 15 16 16 16 17 17 18 18 18 19 19 18 18 17 17 17 16 17 17 18 19 20 21 21 21 22 23 23 23 23 24 23 22 22 22 22 23 23 22 21 21 20 20 21 21 22 21 20 18 17 19 22 23 24 25 26 26 26 26 26 25 25 25 26
3 3 4 5 5 6 6 6 6 7 8 8 9 10 10 11 12 13 14 14 15 15 16 16 17 18 18 18 18 18 19 19 18 17 17 17 17 17 17 18 19 19 20 21 21 22 22 23 23 23 23 23 23 22 22 22 22 21 20 19 19 20 20 20 20 20 19 19 18 18 19 20 22 23 25 25 26 25 25 25 24 24 25 25 25
5 5 6 6 6 7 7 7 8 8 9 10 10 11 12 12 13 14 14 14 15 15 15 16 17 18 18 19 19 19 18 18 18 18 18 18 18 18 19 19 20 20 20 21 21 22 22 22 22 22 23 23 23 22 22 21 20 19 18 18 19 19 19 19 19 18 17 17 19 20 20 20 21 22 24 25 25 24 23 23 23 23 24 24 23
Wind_Direction
174 175 175 174 173 171 170 169 167 166 164 163 161 157 154 149 143 136 128 118 108 98 87 78 70 62 53 43 33 23 15 8 2 358 354 349 346 343 342 341 340 338 335 334 333 330 330 330 330 329 325 323 325 326 321 312 302 299 297 293 291 288 288 284 281 288 294 297 297 299 303 305 304 307 308 308 309 311 312 312 314 314 314 313 311
177 178 178 177 176 174 173 172 171 170 169 167 165 161 157 151 144 137 130 123 115 109 102 96 88 76 63 50 39 28 18 12 5 359 354 349 344 341 339 337 335 332 329 327 325 323 323 324 325 322 317 316 319 321 318 313 305 299 296 295 292 290 289 288 286 287 292 298 301 301 304 304 302 305 307 305 306 310 311 312 313 312 310 310 309
180 181 180 179 178 177 176 176 175 174 173 172 169 164 159 152 146 141 136 133 129 126 122 114 104 89 72 56 41 27 16 9 5 359 353 348 343 338 334 331 328 325 323 320 319 318 317 318 318 313 309 312 316 317 314 311 305 299 297 296 293 294 293 289 286 286 290 296 300 303 306 307 303 303 306 303 303 307 309 309 309 308 307 308 307
184 183 182 181 180 180 181 180 179 179 177 176 172 166 160 155 152 150 148 146 143 141 138 129 120 106 86 66 35 15 6 1 357 354 349 344 339 334 331 328 324 321 317 315 315 314 313 311 309 307 305 308 313 314 312 306 303 301 300 298 294 294 296 292 287 286 289 294 298 302 305 306 305 305 307 305 302 303 305 305 305 306 307 308 307
187 186 185 183 183 185 186 185 184 183 181 179 175 170 166 164 162 161 160 159 156 154 154 152 152 153 149 140 348 349 350 351 351 348 344 339 335 332 328 325 321 317 314 313 312 310 307 304 302 302 302 303 306 306 304 304 304 299 296 296 295 295 296 294 291 289 288 290 295 301 305 306 306 307 308 308 306 305 304 302 302 303 306 307 306
190 188 187 187 189 191 191 189 188 186 185 185 182 177 175 174 173 173 171 169 168 169 174 183 193 201 218 249 304 333 340 343 343 341 336 332 330 327 323 320 316 313 313 311 307 305 302 299 298 297 295 295 296 297 299 301 300 295 293 293 295 296 296 296 295 293 290 290 294 299 303 306 307 307 308 310 309 307 306 304 301 301 304 305 304
192 190 190 192 195 196 194 193 191 189 191 192 187 184 184 183 183 182 180 179 182 187 194 206 219 228 241 269 302 323 333 335 333 330 327 325 323 320 317 315 311 310 310 306 302 300 299 296 294 292 291 289 289 290 293 296 295 291 291 293 295 296 296 297 298 298 295 294 295 297 300 303 304 304 306 309 307 304 306 306 304 303 304 303 304
193 193 195 197 199 199 197 196 194 193 196 195 191 190 191 191 190 189 188 191 195 203 213 223 234 242 254 276 297 314 322 324 322 319 317 317 316 314 310 306 303 302 301 300 299 297 295 291 287 285 283 281 282 286 291 295 293 290 290 293 295 297 297 297 299 298 296 294 293 295 298 299 301 302 306 309 306 303 306 306 302 303 305 303 303
196 197 199 201 202 200 198 198 196 197 200 198 196 197 197 197 197 196 199 205 209 216 228 236 243 251 263 277 291 305 312 313 312 309 309 310 308 305 302 298 298 296 296 298 298 296 292 285 280 279 279 282 287 293 297 296 287 285 289 291 293 295 294 293 294 294 294 292 292 295 296 296 299 303 305 304 302 301 303 301 297 299 303 302 300
199 200 201 203 203 201 200 200 200 202 204 203 202 202 203 203 203 205 210 216 220 227 237 245 250 256 265 277 288 298 304 305 305 303 304 306 303 301 298 296 294 292 292 295 296 295 292 284 279 278 282 289 295 298 300 295 280 276 281 283 286 288 287 287 286 287 289 288 289 293 294 293 295 299 298 297 297 296 296 296 297 301 304 301 299
202 203 204 205 204 202 204 205 205 207 208 207 207 207 209 209 209 213 218 223 226 232 240 248 255 261 267 275 284 293 298 300 300 300 302 303 301 298 295 293 291 288 290 293 293 291 288 285 283 281 283 290 293 293 293 288 280 277 277 276 278 278 277 280 281 281 283 283 285 287 288 289 291 292 292 293 293 291 290 292 295 298 300 298 298
205 206 206 205 203 204 208 209 209 211 212 212 211 213 215 216 217 221 224 228 232 235 241 248 256 262 267 273 280 286 292 296 296 297 299 299 296 292 289 288 286 285 286 287 285 284 283 284 283 283 286 289 291 292 292 289 284 279 277 277 278 275 272 271 273 276 277 278 281 282 282 283 286 286 285 287 288 288 288 289 289 290 290 291 292
206 206 205 205 205 207 211 212 212 214 216 216 216 218 220 222 224 227 229 231 235 238 242 247 254 260 265 271 276 282 289 292 292 294 295 295 290 284 281 281 280 280 282 283 282 282 281 281 280 281 285 286 287 289 288 286 285 282 280 280 279 278 275 271 270 272 274 276 276 275 276 278 279 280 280 282 284 286 287 285 285 284 282 283 285
206 208 207 208 210 212 214 214 214 217 219 220 220 222 225 227 229 231 232 234 237 239 243 247 252 258 263 268 273 279 285 288 288 290 292 291 287 279 275 276 277 279 280 281 281 280 278 277 277 280 283 281 279 280 279 280 284 284 284 282 280 281 280 277 274 272 272 272 270 271 274 274 275 277 278 278 279 280 281 282 282 283 281 281 282
209 212 211 212 213 215 216 216 217 219 221 222 224 226 228 230 231 233 235 236 239 240 244 248 252 256 262 266 271 277 282 285 286 288 288 287 282 275 272 273 274 277 279 279 279 279 278 277 277 278 279 276 274 276 279 283 284 284 285 285 285 286 285 284 281 273 268 267 265 268 272 270 271 275 275 276 275 275 278 279 280 281 281 280 281
212 214 213 213 215 216 218 218 219 221 223 224 226 228 230 231 232 234 236 237 238 240 243 248 252 256 260 264 270 275 280 282 283 285 285 283 278 272 270 272 272 275 278 278 280 282 280 277 276 274 275 275 276 278 281 284 285 286 287 287 287 288 287 287 284 275 272 272 271 272 274 273 275 276 276 278 277 278 280 279 277 277 277 276 277
214 215 214 216 217 218 220 220 221 223 224 226 228 230 232 233 233 235 236 236 237 240 243 248 252 256 260 264 269 275 278 281 281 282 282 278 273 270 271 273 275 277 279 279 282 283 275 269 271 273 274 275 277 281 285 287 287 287 288 288 287 286 286 287 285 279 276 277 278 281 282 282 284 285 285 286 285 285 286 284 281 281 280 278 280
216 216 217 218 219 221 222 223 224 225 225 228 231 233 234 234 234 236 236 236 238 241 244 247 251 255 260 264 268 273 278 280 280 280 279 275 270 269 271 274 276 279 280 278 280 279 270 265 267 270 273 276 280 285 289 290 290 290 290 289 286 284 285 287 287 284 281 281 284 288 288 288 289 290 289 289 288 287 286 284 285 286 283 279 282
218 218 221 221 221 224 225 225 227 227 228 232 235 235 235 235 236 237 237 237 238 241 243 246 251 255 259 263 267 272 277 281 280 278 277 273 269 267 269 272 273 275 275 274 277 278 272 271 273 272 275 280 284 289 292 293 293 291 289 286 281 281 287 292 293 294 296 296 296 296 294 292 290 288 286 286 285 282 280 281 282 281 277 276 279
221 223 225 224 225 227 228 229 229 230 232 236 237 237 236 236 237 237 236 236 237 239 242 246 250 254 258 263 266 271 277 281 280 278 275 271 267 265 265 267 268 271 273 274 278 281 278 278 280 278 280 284 287 292 295 295 294 292 290 288 286 290 299 304 301 301 302 301 299 297 295 293 290 287 286 285 283 280 279 278 277 275 275 275 276
223 225 226 227 228 229 230 231 233 234 236 238 237 236 236 236 237 237 235 235 235 238 242 245 249 254 258 263 267 271 276 279 279 276 273 269 263 257 257 260 263 269 273 274 278 282 282 282 283 283 286 290 293 296 297 297 297 299 301 301 299 300 303 304 302 301 301 299 298 296 294 292 289 287 287 286 284 282 280 277 274 273 273 275 277
221 223 225 227 228 230 231 233 235 236 237 236 234 234 233 234 235 234 233 233 234 237 241 244 249 255 259 264 268 271 274 277 277 274 269 266 262 255 252 255 259 264 270 274 276 279 281 283 284 287 291 294 297 298 300 303 304 304 303 302 301 301 302 302 303 303 301 299 298 295 293 292 290 289 289 288 287 286 284 280 277 275 273 273 276
219 221 224 226 228 229 230 232 233 233 234 233 231 230 229 230 230 230 229 230 232 236 240 244 249 255 260 266 270 272 273 273 275 275 271 265 261 256 251 252 254 258 265 271 275 278 282 283 286 290 293 298 302 304 306 307 306 304 303 303 304 305 305 304 303 302 300 298 296 293 292 292 292 292 292 291 291 290 287 284 281 279 277 276 274
219 221 223 224 226 228 228 229 230 231 231 230 227 226 226 226 226 226 227 228 230 234 239 243 247 253 260 264 267 272 274 274 274 276 273 266 260 255 251 252 254 257 263 268 272 276 279 282 286 293 299 304 307 308 308 308 307 305 305 307 308 308 308 306 304 301 299 296 294 293 292 293 294 294 294 295 295 293 290 286 284 282 280 278 276
221 223 224 225 226 227 227 227 228 228 228 226 224 223 222 222 222 223 224 225 228 232 235 239 245 249 253 257 260 266 271 276 278 277 272 266 262 255 252 254 257 259 262 266 270 273 277 282 290 299 304 309 310 309 308 308 307 305 306 308 309 307 306 306 303 299 296 295 293 293 294 295 296 296 297 299 298 295 292 289 287 285 283 281 280
223 224 225 227 227 227 226 225 225 225 224 223 222 222 222 221 220 222 223 224 228 230 232 235 239 243 247 252 255 257 261 269 276 277 274 270 267 259 253 253 256 259 262 267 270 273 275 281 293 301 304 306 305 304 304 305 307 309 309 309 310 306 303 304 302 298 295 294 294 293 293 296 298 299 301 302 299 296 295 294 293 291 289 287 285
226 226 227 228 228 227 226 224 223 221 220 219 218 218 221 222 221 221 223 224 225 228 230 232 234 239 244 247 248 251 256 260 263 264 261 256 255 254 248 247 251 258 265 268 267 265 270 279 290 296 299 301 304 306 308 310 313 313 311 312 312 308 302 301 298 295 293 293 294 294 295 298 300 301 302 302 299 297 297 298 296 294 293 292 289
229 229 230 229 228 228 226 224 223 221 220 219 218 217 219 221 222 223 225 226 226 227 230 232 235 238 241 241 241 244 248 250 251 253 249 239 235 237 239 243 252 259 265 265 258 257 271 285 293 297 300 304 308 312 312 310 309 308 308 313 316 311 305 303 301 298 297 297 297 299 300 302 302 303 303 302 300 300 300 299 297 296 297 296 293
232 232 232 230 229 229 227 224 223 222 221 220 219 220 222 224 225 226 229 230 232 233 234 236 240 242 241 241 241 241 243 249 252 252 246 235 229 233 240 247 254 262 266 263 257 263 281 294 298 299 299 301 303 305 305 304 305 308 311 314 315 315 312 309 307 306 304 303 303 303 303 303 302 303 303 302 302 303 303 302 300 299 299 297 293
235 235 233 232 232 230 228 225 223 222 222 222 220 221 224 226 228 230 233 236 238 239 240 243 245 247 248 249 249 251 254 258 257 246 238 237 238 241 248 254 258 263 262 254 256 272 289 294 293 290 288 290 294 296 298 300 303 308 312 313 314 317 317 312 310 310 308 306 304 302 301 301 302 304 305 304 304 306 306 305 302 301 299 296 294
240 239 237 236 235 232 230 228 224 221 223 225 224 223 225 229 231 233 235 239 243 244 246 248 249 252 254 255 258 263 262 258 253 246 242 243 245 245 250 256 258 256 250 247 257 276 286 284 280 280 280 282 284 287 290 294 297 302 309 314 316 319 319 315 313 312 308 304 302 301 301 302 303 305 305 305 305 306 306 305 304 301 299 297 296
240 242 241 239 237 234 231 230 226 223 223 225 225 226 227 231 235 237 239 243 247 249 250 251 251 251 250 250 256 260 256 249 249 249 247 247 247 247 251 255 249 240 239 248 263 276 277 271 269 271 272 274 277 280 284 288 292 296 303 311 317 319 318 316 314 312 307 303 301 302 304 306 306 306 306 305 305 305 306 306 306 304 302 299 297
241 242 243 242 238 235 232 231 228 226 225 225 225 226 226 227 231 236 240 244 247 249 248 248 248 246 243 242 245 249 250 248 247 246 247 248 248 247 249 246 236 233 242 253 265 271 268 262 261 264 265 268 272 277 281 284 290 295 300 306 313 316 316 316 315 312 307 303 303 304 306 307 307 307 306 305 305 305 305 305 305 304 302 299 297
243 242 242 241 239 236 233 231 230 229 229 228 227 227 227 228 229 229 231 235 241 245 247 246 245 243 243 243 241 241 242 243 243 245 249 250 247 247 245 236 230 237 250 257 262 263 259 255 256 259 262 265 269 275 281 286 289 294 299 304 309 313 315 317 316 311 306 305 306 306 307 308 308 308 307 307 306 304 303 304 304 303 301 299 298
244 241 241 241 239 236 235 234 233 231 231 229 228 229 230 232 233 232 231 233 238 244 250 250 247 243 243 244 242 239 238 241 245 249 249 247 246 244 235 228 229 240 251 257 261 258 252 250 254 256 259 265 271 275 281 287 290 293 298 303 307 310 313 315 314 309 306 305 305 305 307 309 308 308 307 306 305 304 303 304 304 302 300 299 298
242 240 239 238 235 233 234 233 232 231 230 230 231 232 233 235 238 240 241 243 245 248 252 254 252 248 246 246 246 246 246 247 249 247 244 246 245 234 223 225 234 240 243 250 255 254 250 250 254 257 260 265 271 276 282 287 289 291 296 301 304 306 309 311 311 308 304 303 302 304 306 307 308 308 307 305 305 305 305 304 304 302 301 300 299
232 232 235 234 231 229 231 230 229 231 232 232 234 236 238 241 244 246 248 250 252 253 254 257 259 259 257 253 251 248 246 244 242 241 242 243 236 224 222 230 239 240 241 246 247 247 249 251 254 258 263 268 274 280 284 287 290 294 299 301 301 303 306 307 307 305 302 301 301 302 304 306 307 308 307 305 305 306 307 306 306 304 303 303 302
217 218 226 230 229 229 232 235 236 236 236 239 241 242 245 248 249 250 251 253 254 256 257 258 260 261 261 261 259 254 246 240 237 238 237 232 227 226 231 238 242 243 245 247 245 245 249 253 255 260 265 270 276 283 287 290 293 297 299 299 299 301 304 305 306 305 303 301 300 302 303 304 306 308 308 305 304 306 308 309 308 306 305 305 303
211 217 226 233 237 240 243 247 248 246 245 246 247 248 250 252 253 254 255 256 255 256 257 259 259 260 260 260 258 256 252 245 241 239 235 228 227 232 237 239 241 244 246 245 245 247 250 254 258 263 266 271 277 283 287 291 294 296 297 298 298 299 301 304 306 306 303 300 300 301 302 302 304 308 308 304 303 307 310 311 309 307 305 304 303
211 223 232 239 244 249 253 254 254 254 253 252 253 254 254 254 255 256 256 257 257 256 257 258 260 262 264 263 261 260 257 249 242 239 234 227 227 232 235 235 238 242 245 246 248 250 252 255 260 263 267 272 278 282 287 292 294 295 295 295 294 295 298 302 304 304 302 300 300 299 299 300 305 308 307 303 304 310 313 312 309 308 306 304 303
221 231 237 241 242 247 261 268 266 266 264 259 257 257 256 257 260 260 258 257 257 258 260 262 264 267 269 269 267 264 258 251 243 237 232 229 228 230 233 235 238 242 246 249 251 253 255 258 260 264 268 273 277 283 287 290 292 293 293 292 291 292 297 301 304 304 302 300 298 297 297 299 304 308 307 304 306 312 314 313 310 308 307 305 304
240 248 254 257 251 248 257 266 266 268 268 262 258 256 255 257 259 257 254 255 258 261 263 265 269 272 275 275 272 261 253 252 249 242 236 234 232 232 235 240 244 247 250 253 255 256 258 260 263 266 271 275 279 283 286 288 290 292 291 290 290 291 295 299 302 304 304 301 297 296 295 297 303 308 308 305 307 313 316 314 311 309 308 308 309
253 257 258 261 258 250 247 248 248 251 254 254 255 253 253 256 258 256 255 259 262 264 264 266 270 273 275 277 275 264 252 249 247 243 240 239 238 241 247 253 255 255 254 254 256 257 259 263 265 269 273 277 281 284 286 287 289 289 288 289 291 292 293 297 299 302 303 299 295 295 295 296 302 309 309 304 306 314 317 315 311 310 309 310 311
253 257 261 265 267 264 261 260 259 255 251 253 258 260 261 264 265 264 263 264 265 266 267 269 272 273 274 275 273 264 252 246 242 240 241 243 246 251 256 260 261 259 256 255 256 257 259 263 266 269 273 277 280 283 285 287 288 288 288 289 289 290 292 295 297 299 299 296 296 299 299 297 302 310 309 303 307 316 318 316 313 310 309 311 313
285 288 295 299 299 297 293 286 275 267 262 264 268 270 271 270 270 270 269 268 268 269 270 271 272 274 273 272 270 264 258 253 247 243 243 247 251 255 258 259 259 257 256 256 257 257 259 263 266 269 273 276 279 282 284 286 287 289 289 288 288 289 291 294 295 296 296 295 296 300 299 297 304 311 308 303 309 316 318 315 313 311 309 311 313
8 6 356 337 326 320 310 294 284 280 278 276 275 275 272 270 271 271 271 270 269 269 270 270 271 271 270 269 267 266 263 259 257 256 255 253 254 256 257 256 256 256 256 257 258 259 262 265 268 271 275 277 279 281 283 284 286 288 288 289 289 290 293 297 297 295 295 295 297 299 297 298 306 311 306 301 309 317 316 313 312 311 309 309 311
42 32 10 341 324 309 298 292 289 285 281 278 277 277 275 273 271 270 270 272 273 272 272 271 270 270 268 267 267 266 262 259 262 268 268 262 256 255 255 255 256 256 256 258 260 263 265 268 271 274 277 278 280 281 282 284 285 287 287 289 290 292 296 299 297 294 294 296 298 298 295 298 307 310 303 299 309 316 315 311 310 310 310 310 311
56 39 1 328 313 300 294 291 285 281 280 279 277 275 274 273 273 273 273 276 277 276 276 276 274 272 270 267 266 266 264 265 270 275 274 268 263 259 257 257 258 258 259 262 264 266 269 272 274 276 278 280 281 281 282 284 286 286 287 288 290 292 295 295 293 293 294 296 297 296 294 298 306 305 298 297 307 314 313 310 309 310 310 311 312
30 3 324 308 299 289 283 276 270 269 272 270 269 272 274 275 276 277 278 278 277 277 277 276 275 272 271 270 270 270 271 272 276 278 276 272 269 266 263 262 262 263 264 266 268 271 273 275 276 278 279 281 282 283 284 285 286 286 287 289 290 292 292 290 289 291 293 294 296 296 293 296 300 298 293 296 306 312 312 309 309 310 310 310 313
328 314 304 295 289 284 278 272 269 269 270 268 271 276 279 281 281 281 280 280 278 277 277 276 274 274 275 276 276 278 278 279 280 279 277 275 273 271 269 269 269 269 271 272 273 275 276 276 278 279 280 280 282 283 285 285 285 286 289 292 292 292 291 289 288 289 292 294 297 295 290 289 293 294 293 298 307 312 312 310 310 311 311 311 313
309 305 299 292 288 284 280 275 275 277 278 279 280 282 284 285 285 284 282 280 278 279 279 279 278 280 281 283 283 283 282 282 282 281 278 277 276 274 274 275 274 275 276 277 277 277 278 278 279 280 280 281 284 285 285 285 287 289 292 293 292 292 293 292 291 292 293 292 290 287 284 286 290 291 293 300 309 313 313 312 312 313 313 313 314